Location: Lhota
(50.0887°N, 14.0116°E)
Time: 06:30:32
(UTC+00:00)

Cosmos 1980 Rocket - Pass Details

Date: 19 May 2025
Orbit: 829 x 847 km, 71.0° (Epoch: 14 June)

Event Time Altitude Azimuth Distance (km) Brightness Sun altitude
Rises 22:30:09 0° 319° (NW) 3,383 6.3 -19.6°
Reaches altitude 10° 22:33:25 10° 300° (WNW) 2,445 5.1 -19.7°
Maximum altitude 22:36:51 17° 261° (W) 2,003 4.1 -19.7°
Enters shadow 22:39:04 14° 235° (SW) 2,197 4.1 -19.8°
